Terug naar catalogus

ARIANE 44P R/B

ActiefHEO
NORAD 24892·ROCKET BODY·🇫🇷 France

Gelanceerd Aug 8, 1997 vanaf Guiana Space Centre

Loading…

Volgende Passages (komende 24 uur)

TLE

VersSource: Space-Track

Epoch: Sep 14, 2026, 17:00 UTC

1 24892U 97040B   26257.70845325  .00014652  00000-0  24622-2 0  9997
2 24892   7.6779 302.3922 6154642 219.4462  73.5135  3.82203000329545

Volg ARIANE 44P R/B in realtime met AllMySat

Download on the App Store